FENGYUN 1C DEB

Satellite information

Favourite Embed

Satellite Type and Status

DEBRISIN ORBIT

Key statistics

Satellite FENGYUN 1C DEB at a glance.

Uptime

9496

Days in orbit

Revolutions

≈ 14.3

Per day

Orbit

SSO

Sun Synchronous Orbit

Inclination

98.9

Latest

Satellite identification and parameters

Extended collection of information and parameters for FENGYUN 1C DEB.

Object identification

Identified? True

Debris? True

Object name: FENGYUN 1C DEB

International designator: 1999-025RZ

Object number (NORAD): 30120

Object ID (CCSDS): 30120

Country: PEOPLES REPUBLIC OF CHINA (PRC)

Current information (Y/N): Y

RCS size: SMALL

Orbital parameters

Period: 101.007 minutes

Inclination: 98.8586 deg

SMA: 7184.482 km

Apoapsis: 854.188 km

Periapsis: 758.505 km

RAAN: 208.1373 deg

Eccentricy: 0.006659

Argument of periapsis: 124.823 deg

Mean anomaly: 356.686 deg

Mean motion: 14.25639151 rev/day

Mean motion (dot): 0.00004513 rev/day2

B* drag term: 0.0018784 1/REarth

Two-line elements (TLE)

Creation date: May 9, 2025, 2:46 a.m.

Reference frame: TEME

Reference center: EARTH

Epoch: May 8, 2025, 6:04 p.m. UTC

TLE line 0: 0 FENGYUN 1C DEB

TLE line 1: 1 30120U 99025RZ 25128.75326074 .00004513 00000-0 18784-2 0 9996

TLE line 2: 2 30120 98.8586 208.1373 0066590 124.8230 356.6860 14.25639151942637

Live tracking on map

Real-time ground track for satellite FENGYUN 1C DEB.

In-orbit conjunctions

A list of the most updated potential collisions computed for object FENGYUN 1C DEB.

Target Orbit TCA Probability of collision Miss distance Type
SL-8 R/B LEO 2024-11-29 16:40:43 0.0002172777 331.0 (m) ROCKET BODY
COSMOS 2278 LEO 2024-11-21 02:24:12 0.000121673 384.0 (m) PAYLOAD
COSMOS 968 LEO 2024-09-06 17:48:35 0.0003088473 66.0 (m) PAYLOAD

Associated space launch

Chinese polar orbiting meteorological satellite

FENGYUN 1C DEB was lifted into orbit during the mission ‘Long March 4B | Feng Yun 1C’, on board a Long March 4B space rocket.

The launch took place on May 10, 1999, 1:33 a.m. from Launch Complex 7.

For more information about the launch, click the button.

Launch to space Long March 4B | Feng Yun 1C
Long March 4B | Feng Yun 1C

Agency: N/A

Status: Launch Successful

Launch date: May 10, 1999, 1:33 a.m. UTC

Rocket: Long March 4B

Launch pad: Launch Complex 7

Location: Taiyuan Satellite Launch Center, People's Republic of China

...

Latest news about this satellite

There are no fresh news available about this satellite. Check back as we update our databases every day.


Newsletter sign-up

Weekly statistics, charts and insights to help you stay on top of the space industry.